{"data":{"norad_id":58558,"epoch":"2026-05-25T05:13:19.336224Z","epoch_age_seconds":55651,"freshness":"FRESH","line1":"1 58558U 23194B   26145.21758491  .00004488  00000+0  22061-3 0  9992","line2":"2 58558  34.9916 224.4564 0009322 114.5984 245.5701 15.17425669136606","mean_motion":15.17425669,"eccentricity":0.0009322,"inclination_deg":34.9916,"raan_deg":224.4564,"arg_perigee_deg":114.5984,"mean_anomaly_deg":245.5701,"bstar":0.00022061,"rev_number":13660,"period_min":94.897564303692,"perigee_km":507.19974829123,"apogee_km":520.04874796224,"semimajor_km":6891.7612481267,"source":"CELESTRAK","updated_at":"2026-05-25T13:38:00.832692Z"}}